Regional Weather Roundup
Issued by NWS Cleveland, OH

Home | Current Version | Previous Version | Text Only | Print | Product List | Glossary Off
Versions: 1 2 3 4 5 6 7 8 9 10 11 12 13 14 15 16 17 18 19 20 21 22 23 24 25 26 27 28 29 30 31 32 33 34 35 36 37 38 39 40 41 42 43 44 45 46 47 48 49 50

000
ASUS41 KCLE 240310
RWRCLE
OHIO REGIONAL WEATHER ROUNDUP
NATIONAL WEATHER SERVICE WILMINGTON, OH
1100 PM EDT MON OCT 23 2017

NOTE: "FAIR" INDICATES FEW OR NO CLOUDS BELOW 12,000 FEET WITH NO
SIGNIFICANT WEATHER AND/OR OBSTRUCTIONS TO VISIBILITY.

OHZ001>008-015>018-024>027-034-035-043-044-240400-
   NORTHWEST OHIO

CITY           SKY/WX    TMP DP  RH WIND       PRES   REMARKS
DEFIANCE       LGT RAIN  53  50  89 W7        29.58R
FINDLAY        RAIN      53  49  86 SW15G23   29.58R FOG
TOLEDO EXPRESS LGT RAIN  55  54  96 W16       29.53R
TOLEDO EXEC    CLOUDY    56  53  90 SW16      29.53S
LIMA           LGT RAIN  51  50  96 W16G23    29.63R
$$

OHZ009>014-019>023-028>033-038-089-240400-
   NORTHEAST OHIO

CITY           SKY/WX    TMP DP  RH WIND       PRES   REMARKS
CLE-HOPKINS    CLOUDY    59  54  83 S15G25    29.58F
CLE-LAKEFRONT  FAIR      59  53  80 S16G23    29.55F
CUY CO. ARPT   CLOUDY    59  54  82 S13       29.58F
LORAIN-ELYRIA  LGT RAIN  57  50  77 S17       29.56F
ASHTABULA      LGT RAIN  56  55  97 S12G21    29.59F
AKRON-CANTON   MOCLDY    56  51  84 S18G30    29.62F
WOOSTER        CLOUDY    56  53  90 S13       29.61F
MANSFIELD      CLOUDY    56  54  93 S20G26    29.57F
YOUNGSTOWN     LGT RAIN  56  54  93 S13       29.62F
$$

OHZ042-051>053-060>062-070>072-077>081-240400-
  SOUTHWEST OHIO

CITY           SKY/WX    TMP DP  RH WIND       PRES   REMARKS
CINC-COVINGTON CLOUDY    50  50 100 W13       29.75R
CINC-LUNKEN    LGT RAIN  53  51  93 W13       29.75R
HAMILTON       LGT RAIN  52  51  97 W7        29.74R
DAYTON         LGT RAIN  50  50 100 W20G26    29.70R
WRIGHT-PAT AFB LGT RAIN  52  52 100 W14       29.68R
DAYTON GENERAL RAIN      51  49  92 W12G20    29.71R FOG
WILMINGTON     LGT RAIN  52  52 100 W17G28    29.70R FOG
$$

OHZ036-037-039>041-045>050-054>059-063>069-073>076-082>088-240400-
  CENTRAL AND SOUTHEAST OHIO

CITY           SKY/WX    TMP DP  RH WIND       PRES   REMARKS
COLUMBUS       CLOUDY    57  54  89 SW17G25   29.64R
OSU AIRPORT    LGT RAIN  56  56 100 SW16G25   29.63R FOG
BOLTON FIELD   LGT RAIN  55  54  95 SW14G21   29.65S
RICKENBACK AFB CLOUDY    55  54  95 SW18G25   29.66R
NEWARK         CLOUDY    58  54  86 SW10      29.64S
MARION         HVY RAIN  56  54  93 W12       29.60R FOG
LANCASTER      CLOUDY    56 N/A N/A SW16G23   29.67R
ZANESVILLE     RAIN      57  54  89 S12       29.67R FOG
NEW PHILLY     CLOUDY    57  54  89 S8G21     29.65F
$$




USA.gov is the U.S. government's official web portal to all federal, state and local government web resources and services.